Flag for U.S.A. Weather past 2 weeks in Tempe, Arizona, U.S.A.

85 °F

Passing clouds.

Feels Like: 83 °F
Forecast: 69 / 94 °F
Wind: 3 mph from West

Location: Phoenix Sky Harbor International Airport

Current Time: Oct 8, 2015 at 9:23:55 PM

Latest Report: Oct 8, 2015 at 7:51 PM

Visibility: 10 mi

Pressure: 29.85 "Hg

Humidity: 32%

Dew point: 52 °F

Location of TempeLocation

Historic Weather in Tempe — Graph


Tempe temperature yesterday

Maximum temperature yesterday: 82 °F (at 3:51 PM)
Minimum temperature yesterday: 64 °F (at 4:51 AM)
Average temperature yesterday: 73 °F

Past Weeks' High & Low Weather Summary

High106 °F (Oct 1, 2:51 PM)87% (Oct 6, 6:51 PM)30.02 "Hg (Oct 6, 6:51 PM)
Low64 °F (Oct 7, 4:51 AM)9% (Oct 1, 4:51 PM)29.45 "Hg (Oct 3, 5:51 PM)
Average86 °F35%29.77 "Hg
* Reported Sep 23 7:51 PM — Oct 8 7:51 PM, Tempe, Weather by CustomWeather, © 2015

Note: Actual official high and low records may vary slightly from our data, if they occured in-between our weather recording intervals... More about our weather records


Tempe weather history for previous 24 hours

Time TempWeatherWind HumidityBarometerVisibility
7:51 PM
Thu, Oct 8
85 °FPassing clouds.3 mph32%29.85 "Hg10 mi
6:51 PM86 °FPassing clouds.6 mph30%29.83 "Hg10 mi
5:51 PM89 °FPassing clouds.5 mph25%29.81 "Hg10 mi
4:51 PM91 °FScattered clouds.6 mph23%29.80 "Hg10 mi
3:51 PM92 °FScattered clouds.6 mph23%29.81 "Hg10 mi
2:51 PM91 °FScattered clouds.7 mph24%29.83 "Hg10 mi
1:51 PM89 °FScattered clouds.6 mph27%29.86 "Hg10 mi
12:51 PM87 °FScattered clouds.3 mph29%29.88 "Hg10 mi
11:51 AM82 °FPassing clouds.3 mph35%29.92 "Hg10 mi
10:51 AM80 °FPassing clouds.No wind41%29.94 "Hg10 mi
9:51 AM77 °FPassing clouds.No wind47%29.95 "Hg10 mi
8:51 AM73 °FPassing clouds.3 mph57%29.95 "Hg10 mi
7:51 AM69 °FPassing clouds.6 mph68%29.95 "Hg10 mi
6:51 AM67 °FPassing clouds.No wind73%29.94 "Hg10 mi
5:51 AM67 °FPassing clouds.5 mph73%29.92 "Hg10 mi
4:51 AM68 °FClear.6 mph70%29.91 "Hg10 mi
3:51 AM69 °FPassing clouds.No wind68%29.91 "Hg10 mi
2:51 AM70 °FClear.3 mph66%29.91 "Hg10 mi
1:51 AM71 °FClear.5 mph63%29.91 "Hg10 mi
12:51 AM72 °FPassing clouds.No wind59%29.91 "Hg10 mi
11:51 PM
Wed, Oct 7
75 °FPassing clouds.5 mph48%29.92 "Hg10 mi
10:51 PM77 °FPassing clouds.5 mph45%29.93 "Hg10 mi
9:51 PM77 °FPassing clouds.5 mph45%29.93 "Hg10 mi
Weather by CustomWeather, © 2015

See weather overviewHow to use our weather pages